Location: Unspecified
(49.9820°N, 20.4363°E)
Time: 22:09:18
(UTC+02:00)

ISS - Pass Details

Date: 16 July 2018
Orbit: 402 x 408 km, 51.6° (Epoch: 20 July)

Event Time Altitude Azimuth Distance (km) Brightness Sun altitude
Exits shadow 00:59:16 71° 158° (SSE) 434 -4.0 -18.5°
Drops below altitude 10° 01:02:33 10° 75° (ENE) 1,472 -0.8 -18.5°
Sets 01:04:39 0° 73° (ENE) 2,336 0.3 -18.5°
